Location: Unspecified
(42.9300°N, 71.1866°W)
Time: 03:27:24
(UTC-05:00)

GENESIS II - Visible Passes

Search period start: 28 November 2014 00:00
Search period end: 08 December 2014 00:00
Orbit: 521 x 541 km, 64.5° (Epoch: 26 November)

Date Brightness Start Highest point End Pass type
(mag) Time Alt. Az. Time Alt. Az. Time Alt. Az.
28 Nov 4.2 04:44:13 82° ENE 04:44:13 82° ENE 04:48:05 10° NE visible
28 Nov 6.1 06:20:35 10° WNW 06:22:40 14° NW 06:24:45 10° N visible
29 Nov 5.4 04:34:55 35° NNE 04:34:55 35° NNE 04:37:19 10° NNE visible
29 Nov 6.2 06:10:17 10° WNW 06:11:58 12° NW 06:13:43 10° N visible
30 Nov 6.4 04:25:18 19° NNE 04:25:18 19° NNE 04:26:31 10° NNE visible
30 Nov 6.3 06:00:39 11° NW 06:01:17 11° NW 06:02:36 10° NNW visible
01 Dec 7.0 04:15:27 12° NNE 04:15:27 12° NNE 04:15:42 10° NNE visible
01 Dec 6.5 05:50:47 10° NNW 05:50:47 10° NNW 05:51:13 10° NNW visible
